Wind_Speed
17 17 17 17 17 17 17 17 17 17 17 16 15 15 15 15 14 14 14 14 13 12 12 11 10 9 8 8 8 7 7 6 5 4 3 3 3 2 2 2 1 1 1
18 19 19 19 19 19 18 19 19 19 18 18 17 17 16 16 16 15 15 15 15 14 13 13 12 11 10 9 9 8 8 7 6 5 5 4 4 4 3 3 3 2 2
20 20 20 20 21 21 20 20 20 20 20 19 19 19 19 18 17 17 17 16 16 15 15 14 14 12 11 11 10 9 9 8 7 7 6 5 5 5 4 4 4 3 3
21 21 21 21 22 22 22 22 22 22 22 21 21 21 20 20 19 19 19 18 17 16 16 15 15 14 13 12 12 11 10 10 9 8 8 7 6 6 5 5 4 4 4
23 23 23 23 24 24 24 24 24 24 24 23 23 23 22 21 21 21 20 20 19 18 18 17 16 16 15 14 13 13 12 11 11 10 9 8 8 7 7 6 6 5 5
25 25 26 26 26 26 26 26 26 25 25 25 25 24 24 23 22 22 22 21 20 19 19 19 18 17 17 16 15 15 14 13 13 12 11 10 9 9 8 8 7 6 6
28 27 28 28 28 29 29 29 28 28 27 27 27 26 26 25 24 24 23 22 21 21 20 20 20 19 19 18 17 17 16 15 14 14 13 12 11 11 10 10 9 8 8
30 31 30 30 30 31 32 32 31 31 30 29 30 29 28 28 27 26 26 25 23 23 23 22 21 21 20 20 19 19 18 17 16 15 15 14 13 12 12 11 11 10 10
33 33 33 33 33 34 34 34 34 34 33 32 32 32 31 30 29 29 29 28 26 25 25 24 23 23 22 22 21 21 20 19 18 17 16 16 15 14 14 13 12 12 12
35 36 35 35 35 36 36 36 37 37 36 34 34 34 33 32 32 31 30 30 29 28 26 26 25 24 24 24 23 22 21 21 20 19 18 17 17 16 15 15 14 14 13
37 37 37 37 37 38 38 39 38 39 38 37 36 36 36 35 34 33 32 31 31 31 30 29 27 26 25 25 24 24 23 22 21 21 20 19 19 18 17 17 16 15 15
37 38 39 39 39 39 40 40 41 41 41 40 39 38 38 37 36 36 35 34 33 33 33 31 30 28 27 27 25 25 25 24 23 22 21 21 20 19 19 18 18 17 17
39 40 40 40 40 40 41 42 42 42 42 42 41 41 40 40 39 38 38 37 36 35 34 33 32 30 28 28 27 27 26 25 24 24 23 22 22 21 20 20 20 19 18
39 40 41 41 41 42 42 42 43 43 43 43 43 43 43 42 41 40 40 39 38 37 37 35 34 32 31 30 29 29 28 27 26 26 25 24 23 23 22 21 21 21 20
40 41 41 41 42 43 43 42 43 44 44 44 43 43 44 44 43 42 42 41 40 40 39 38 37 35 33 32 31 31 31 30 29 28 27 26 25 25 24 23 23 22 22
40 40 40 40 41 42 43 42 43 45 45 45 44 44 44 45 45 45 44 43 42 42 41 40 38 37 35 35 33 33 32 32 31 30 29 28 28 27 26 25 25 24 24
40 40 40 41 41 43 44 43 44 45 46 46 45 44 45 45 46 46 46 45 44 43 42 42 40 39 38 37 36 35 34 34 33 33 32 31 30 29 28 27 27 26 26
40 41 41 40 41 43 44 44 44 45 46 47 47 45 45 46 46 46 47 46 45 45 44 43 42 41 40 38 37 37 36 35 35 34 33 33 32 32 31 30 29 29 27
40 41 42 42 41 43 44 44 44 45 46 47 48 46 45 46 46 46 47 47 46 46 45 45 44 43 42 41 40 38 37 36 36 36 35 34 34 33 33 32 31 30 29
39 41 42 42 42 43 44 45 45 45 46 48 48 48 46 46 47 47 47 47 47 47 46 45 45 45 43 42 41 40 38 38 38 38 37 36 35 35 35 34 33 32 31
38 39 40 41 41 42 43 44 44 44 46 48 49 49 48 47 48 48 48 47 47 48 48 47 46 45 44 42 42 41 40 39 39 39 38 37 36 36 36 35 35 34 33
38 39 40 41 42 42 42 43 44 44 45 46 47 48 49 48 47 48 48 48 48 48 48 48 47 46 45 44 43 42 42 40 40 40 39 38 38 38 37 37 36 36 34
38 39 40 41 42 42 42 43 43 44 44 44 46 47 48 48 48 48 48 48 48 48 49 49 48 48 47 46 45 43 43 43 41 40 40 39 39 39 38 38 37 37 37
37 37 38 39 39 41 42 43 44 44 44 44 45 47 48 48 48 49 49 49 48 49 49 49 49 48 48 47 47 45 44 44 43 41 41 41 40 40 39 39 39 38 38
36 36 37 37 38 39 41 43 44 45 45 45 46 46 47 48 47 49 49 49 49 49 49 49 49 49 49 49 48 47 46 45 45 44 42 42 42 41 41 40 41 40 38
34 35 35 36 37 38 40 42 43 44 46 46 46 46 47 47 47 48 49 49 49 49 50 49 50 50 50 50 49 48 48 46 45 45 44 43 43 43 43 42 42 42 41
Wind_Direction
243 242 242 241 239 239 238 239 239 239 241 241 241 242 242 239 237 236 235 233 231 231 229 228 228 226 226 225 224 223 223 224 220 218 224 227 226 237 249 255 258 256 262
245 243 242 241 241 240 239 239 240 240 241 243 242 242 242 241 239 239 239 236 234 233 231 228 229 229 228 227 224 223 224 225 226 226 227 230 238 248 257 261 262 255 259
248 246 244 243 241 240 239 238 239 239 241 242 243 242 241 241 240 239 239 239 236 234 232 231 231 231 231 230 227 226 227 228 227 230 234 234 240 248 253 255 255 250 252
249 249 248 246 243 241 240 239 240 239 239 241 243 243 243 242 239 239 239 239 239 237 234 233 233 233 233 233 231 229 231 232 234 236 240 239 241 245 249 250 251 249 249
251 250 249 248 246 244 243 241 241 242 241 242 243 243 244 243 242 238 239 240 240 238 236 234 233 233 234 234 232 231 233 236 239 241 242 241 242 245 248 248 249 251 253
254 251 250 250 247 246 245 244 242 243 243 242 242 243 243 242 242 240 240 239 238 238 238 236 235 235 235 236 235 233 236 240 242 241 242 242 244 248 250 249 251 254 257
255 254 252 252 250 248 247 246 243 243 243 243 243 242 242 242 241 241 240 240 239 238 239 238 237 237 238 238 237 236 237 242 243 244 245 246 248 250 252 252 254 255 257
255 255 253 254 253 251 249 247 246 245 244 244 244 244 244 242 240 240 240 240 243 240 240 240 239 239 239 239 239 239 239 242 244 246 247 248 249 251 253 254 256 256 257
255 255 255 255 254 252 250 248 246 245 245 245 244 245 244 244 243 243 242 240 241 242 241 241 241 241 241 240 240 241 241 241 244 246 247 248 249 251 253 255 255 256 258
257 256 256 256 255 253 250 248 246 245 244 244 244 244 244 244 244 244 244 242 241 242 243 243 243 242 242 242 242 242 242 243 244 246 247 248 250 252 253 254 255 257 258
258 257 258 257 256 254 251 248 247 245 244 244 244 244 243 244 244 245 244 244 242 242 243 245 245 244 243 243 243 243 244 244 244 246 246 248 250 252 254 254 255 256 258
260 259 259 259 257 255 252 249 247 246 244 243 243 244 244 244 244 245 245 244 243 243 243 244 246 245 244 244 243 244 245 244 245 244 246 247 249 251 253 255 255 256 257
261 261 260 259 258 256 253 250 247 245 244 243 243 244 244 244 243 244 245 245 244 244 244 244 245 244 244 245 243 244 245 245 245 245 247 247 248 250 252 254 254 255 258
262 262 261 259 258 256 253 251 248 245 244 243 242 243 243 244 243 243 244 244 244 244 245 245 245 244 244 245 244 244 245 245 244 246 247 248 249 250 252 254 255 255 257
262 262 260 258 257 256 254 252 249 246 244 244 243 243 243 244 243 243 243 243 243 243 243 243 243 243 243 244 244 244 244 244 245 246 248 249 250 250 251 253 255 256 257
261 261 260 259 258 256 254 253 250 247 245 244 244 244 242 242 243 242 242 243 243 243 242 243 243 243 244 244 244 244 244 245 245 247 248 250 251 251 252 253 255 256 257
261 260 260 259 258 256 255 253 250 248 247 246 244 244 242 242 242 242 242 242 242 243 243 243 243 243 244 245 244 244 245 246 246 247 249 250 251 252 252 253 254 256 258
262 261 260 260 259 257 255 252 250 249 247 246 244 244 243 242 242 241 241 241 242 243 242 243 243 243 243 244 245 245 245 245 247 248 248 250 250 251 252 253 254 255 257
263 262 260 260 260 257 254 252 250 248 247 245 244 243 243 242 241 241 242 241 241 242 243 242 242 243 244 245 246 245 245 246 247 248 249 249 250 251 252 253 254 254 256
263 262 261 260 259 257 254 252 251 249 247 245 244 242 243 242 241 241 241 242 241 242 242 242 243 243 244 245 246 246 246 246 247 248 249 249 249 251 251 251 252 253 255
264 263 262 261 259 257 254 252 250 248 247 245 244 243 242 242 242 241 241 242 242 242 242 242 243 243 243 244 246 246 245 246 247 247 248 248 249 250 250 250 251 252 254
264 263 262 261 260 258 255 253 250 249 247 246 246 244 242 243 242 242 241 242 243 243 242 243 243 243 244 245 246 246 246 246 247 247 248 248 249 250 250 249 250 251 252
265 264 264 263 261 258 255 254 251 248 247 246 245 243 243 243 242 242 241 242 242 242 243 244 244 243 243 244 245 246 247 246 247 248 248 249 249 250 250 250 250 252 253
266 265 264 263 261 258 256 254 251 248 246 246 245 244 243 243 243 242 241 242 242 243 244 244 244 243 243 244 245 247 247 247 247 248 248 249 249 249 248 249 249 250 252
267 266 265 263 262 259 256 254 252 250 247 246 245 244 243 243 242 242 240 241 242 242 243 243 242 242 243 245 245 246 247 247 247 248 248 249 250 249 248 248 248 249 250
269 266 264 263 262 259 256 254 252 250 247 247 245 243 243 243 243 242 241 241 242 242 243 244 243 243 244 245 245 245 246 247 247 248 249 249 250 250 249 248 248 248 249
Height
5829 5830 5831 5831 5832 5833 5833 5834 5835 5836 5837 5838 5839 5840 5841 5841 5842 5843 5843 5844 5845 5845 5846 5847 5847 5848 5848 5849 5849 5849 5850 5850 5850 5850 5850 5850 5850 5850 5850 5850 5849 5849 5849
5825 5826 5827 5828 5829 5830 5830 5831 5832 5833 5834 5835 5836 5837 5838 5839 5840 5840 5841 5842 5843 5843 5844 5845 5845 5846 5847 5847 5848 5848 5848 5849 5849 5849 5849 5849 5849 5849 5849 5849 5849 5849 5848
5822 5822 5823 5824 5825 5826 5827 5828 5829 5830 5831 5832 5833 5834 5835 5836 5837 5838 5838 5839 5840 5841 5842 5843 5843 5844 5845 5846 5846 5847 5847 5848 5848 5848 5848 5848 5848 5848 5848 5848 5848 5848 5848
5817 5818 5818 5820 5821 5822 5823 5824 5825 5826 5827 5828 5829 5831 5832 5833 5833 5834 5835 5837 5837 5838 5839 5840 5841 5842 5843 5844 5845 5845 5846 5846 5847 5847 5847 5847 5847 5847 5847 5847 5847 5847 5847
5812 5813 5814 5815 5816 5817 5818 5820 5821 5822 5823 5824 5826 5827 5828 5829 5830 5831 5832 5833 5834 5835 5836 5837 5838 5839 5840 5841 5842 5843 5844 5845 5845 5845 5845 5845 5846 5846 5846 5846 5846 5846 5846
5807 5808 5809 5810 5811 5812 5813 5815 5816 5817 5819 5820 5821 5823 5824 5825 5827 5828 5829 5830 5831 5832 5833 5834 5835 5836 5838 5839 5840 5841 5841 5842 5843 5843 5843 5844 5844 5844 5844 5845 5845 5845 5845
5801 5801 5803 5803 5805 5806 5808 5809 5811 5812 5814 5815 5817 5818 5819 5821 5822 5824 5825 5826 5827 5828 5830 5831 5832 5833 5834 5835 5837 5837 5838 5839 5840 5841 5841 5842 5842 5842 5842 5843 5843 5843 5843
5794 5795 5795 5796 5798 5799 5801 5803 5804 5806 5808 5809 5811 5813 5814 5816 5818 5819 5820 5822 5823 5825 5826 5827 5828 5829 5830 5832 5833 5834 5835 5836 5837 5838 5839 5839 5840 5840 5840 5841 5841 5841 5841
5786 5787 5788 5789 5790 5792 5793 5795 5797 5799 5801 5803 5805 5806 5808 5810 5812 5814 5815 5817 5819 5820 5821 5822 5824 5825 5826 5828 5829 5830 5831 5833 5834 5835 5835 5836 5837 5837 5838 5838 5838 5839 5839
5778 5779 5780 5781 5782 5783 5785 5787 5789 5791 5793 5796 5798 5800 5802 5804 5806 5808 5810 5811 5813 5815 5816 5818 5819 5821 5822 5823 5825 5826 5827 5829 5830 5831 5832 5833 5833 5834 5834 5835 5835 5836 5836
5770 5770 5771 5772 5773 5774 5775 5778 5780 5782 5785 5788 5790 5793 5795 5797 5800 5802 5803 5805 5807 5809 5811 5813 5814 5816 5817 5819 5820 5822 5823 5824 5826 5827 5828 5829 5829 5830 5831 5831 5832 5833 5833
5760 5760 5761 5762 5763 5764 5765 5768 5770 5773 5776 5779 5782 5784 5787 5790 5792 5795 5797 5799 5801 5803 5805 5807 5809 5810 5812 5814 5815 5817 5818 5819 5821 5822 5823 5824 5825 5826 5827 5828 5828 5829 5830
5750 5750 5750 5751 5752 5753 5755 5757 5760 5763 5766 5769 5772 5775 5778 5781 5784 5787 5789 5791 5794 5796 5798 5800 5802 5804 5806 5808 5810 5812 5813 5814 5816 5817 5818 5820 5820 5821 5822 5823 5824 5825 5826
5739 5739 5739 5739 5741 5742 5744 5746 5749 5752 5755 5758 5762 5765 5768 5771 5775 5778 5781 5783 5786 5788 5791 5793 5795 5798 5800 5802 5804 5806 5807 5809 5810 5812 5813 5814 5815 5816 5817 5818 5819 5820 5821
5727 5727 5727 5728 5729 5731 5733 5735 5738 5741 5744 5747 5751 5754 5758 5761 5764 5768 5772 5775 5777 5780 5783 5785 5788 5790 5793 5795 5797 5799 5801 5803 5805 5806 5808 5809 5810 5811 5812 5813 5814 5815 5816
5716 5716 5716 5717 5718 5720 5721 5724 5726 5729 5733 5736 5739 5743 5746 5750 5754 5758 5762 5765 5768 5771 5774 5777 5780 5783 5785 5787 5790 5792 5794 5796 5798 5800 5801 5803 5804 5805 5806 5807 5808 5809 5810
5705 5705 5706 5706 5707 5708 5710 5712 5715 5718 5721 5724 5728 5731 5735 5739 5743 5747 5751 5755 5759 5762 5765 5768 5771 5774 5777 5779 5782 5784 5787 5789 5791 5793 5794 5796 5797 5799 5800 5801 5802 5803 5804
5694 5694 5694 5695 5695 5696 5698 5700 5703 5706 5709 5712 5716 5720 5723 5727 5731 5736 5740 5744 5748 5752 5755 5758 5762 5765 5768 5771 5774 5776 5778 5781 5783 5785 5787 5789 5790 5792 5793 5795 5796 5797 5798
5682 5682 5682 5683 5684 5684 5686 5688 5690 5693 5697 5700 5704 5708 5712 5716 5720 5724 5729 5733 5738 5742 5745 5749 5752 5756 5759 5762 5765 5767 5770 5772 5775 5777 5779 5781 5783 5784 5786 5787 5789 5791 5792
5671 5670 5670 5671 5671 5672 5673 5675 5678 5681 5684 5688 5692 5696 5700 5704 5709 5713 5717 5722 5727 5731 5734 5738 5742 5745 5749 5752 5755 5758 5761 5763 5766 5768 5770 5773 5775 5776 5778 5780 5782 5783 5785
5659 5659 5658 5658 5659 5659 5661 5663 5665 5669 5672 5675 5679 5683 5688 5692 5697 5701 5706 5710 5715 5719 5723 5727 5731 5734 5738 5741 5744 5748 5751 5753 5756 5759 5761 5764 5766 5768 5770 5772 5774 5776 5777
5648 5647 5646 5646 5646 5647 5648 5651 5653 5656 5659 5663 5667 5671 5675 5680 5685 5689 5693 5698 5703 5707 5712 5716 5720 5723 5727 5731 5734 5737 5741 5744 5746 5749 5752 5754 5757 5759 5761 5763 5766 5767 5769
5636 5635 5634 5634 5634 5635 5636 5638 5641 5644 5647 5651 5654 5659 5663 5668 5672 5677 5681 5686 5690 5695 5700 5704 5708 5712 5716 5720 5724 5727 5731 5734 5737 5740 5742 5745 5747 5750 5752 5754 5757 5759 5761
5625 5624 5623 5622 5622 5623 5624 5626 5629 5632 5635 5639 5643 5647 5651 5655 5660 5664 5669 5674 5678 5683 5687 5692 5696 5700 5705 5709 5713 5717 5721 5724 5727 5730 5733 5735 5738 5740 5742 5745 5748 5750 5752
5613 5612 5612 5611 5611 5611 5612 5614 5616 5619 5623 5627 5630 5634 5639 5643 5647 5652 5656 5661 5665 5670 5675 5679 5684 5688 5693 5698 5702 5706 5710 5713 5716 5720 5723 5726 5728 5730 5732 5735 5737 5740 5742
5602 5601 5601 5600 5600 5600 5601 5602 5604 5607 5610 5614 5618 5622 5627 5631 5635 5639 5643 5648 5653 5658 5663 5667 5672 5677 5681 5686 5690 5694 5698 5702 5705 5709 5712 5715 5717 5719 5722 5724 5727 5729 5732